Dewpoint
28 28 25 24 26 24 20 17 16 16 19 19 24 24 23 22 24 27 28 28 30 32 33 35 45 52 55 58 62 65 66 68 68 68 68 66 64 63 63 62 62 58 55 53
19 24 22 22 22 23 23 22 19 18 19 21 23 22 23 24 25 26 25 28 29 30 33 37 44 55 59 59 62 65 65 67 68 68 66 64 62 60 59 57 55 53 52 53
17 16 20 21 20 21 23 25 23 19 19 21 21 21 23 23 25 26 27 28 29 30 31 35 39 56 59 60 63 64 65 67 67 67 64 63 63 59 54 53 51 50 51 51
13 15 13 19 20 17 20 22 23 22 20 19 21 17 19 19 20 23 25 27 30 30 30 32 37 51 59 60 64 66 66 67 67 67 64 61 58 54 52 50 47 48 50 50
17 12 14 15 16 19 18 20 22 21 20 22 22 19 17 17 17 20 23 29 32 33 33 33 36 46 56 60 63 67 67 67 67 67 64 61 58 54 50 46 49 50 50 49
17 21 15 15 17 18 23 24 24 23 23 23 24 18 16 16 17 20 22 23 26 32 34 34 36 43 53 62 65 66 66 67 67 65 62 61 59 53 48 46 47 48 47 45
23 22 23 17 19 20 24 26 24 21 23 23 20 16 19 16 17 18 18 26 31 31 35 37 39 43 53 58 64 65 65 64 63 62 60 59 57 53 49 48 46 46 44 44
25 25 26 25 18 20 20 25 29 23 20 17 18 17 17 17 16 15 21 26 30 30 35 38 42 45 52 58 63 62 62 61 58 57 53 54 53 47 47 46 44 42 42 43
25 24 25 24 18 19 23 22 25 25 25 23 18 17 16 15 19 24 25 28 32 32 33 37 43 47 52 58 61 59 58 52 51 50 49 49 49 47 46 46 47 42 44 42
29 26 24 24 24 21 23 23 26 28 26 21 14 13 11 14 14 24 26 27 32 33 34 38 44 48 53 57 58 57 52 48 47 46 47 46 48 46 45 46 43 43 43 39
28 30 28 26 25 21 21 25 25 26 31 28 21 17 20 18 19 20 28 29 34 34 35 41 46 50 53 56 56 53 52 46 44 45 46 48 47 46 44 41 41 42 43 41
29 30 28 26 27 26 23 26 28 32 30 32 31 25 23 22 22 26 29 29 34 36 38 43 47 51 53 53 52 49 47 44 44 44 44 45 44 42 40 41 42 44 41 41
29 30 29 28 26 28 26 25 28 31 35 30 33 29 28 27 25 26 28 31 39 39 41 45 48 50 52 51 49 46 42 41 42 40 42 42 42 40 41 41 41 40 39 38
40 31 28 29 28 28 29 29 27 29 32 30 30 28 28 26 28 28 35 38 41 42 43 46 47 50 51 50 48 45 42 41 39 39 39 41 39 40 41 41 39 39 38 37
39 32 29 26 26 25 26 28 29 27 28 31 31 27 26 25 27 31 37 40 40 41 43 44 46 48 48 48 47 46 42 40 38 37 37 39 40 42 41 40 39 38 37 37
34 37 34 31 25 24 24 25 27 29 27 26 28 29 30 28 27 26 26 34 37 41 41 43 44 46 46 46 45 44 42 39 36 36 36 38 40 39 39 39 38 39 39 38
37 34 36 34 29 25 26 27 26 29 32 33 31 32 30 30 29 30 28 30 37 39 40 42 43 44 45 45 44 42 40 37 35 34 36 37 37 35 36 35 36 37 38 39
37 35 33 29 36 26 27 28 27 28 27 27 28 30 29 30 30 30 30 30 37 37 39 41 42 43 44 43 43 41 37 35 36 34 35 35 35 34 34 35 36 37 38 38
29 35 31 28 30 32 26 26 28 26 28 29 28 27 25 26 29 32 32 32 34 38 38 39 41 43 43 42 41 37 36 35 34 34 33 32 34 34 35 35 37 37 38 38
28 35 31 30 26 26 31 28 26 30 30 31 32 33 31 31 29 29 32 32 33 36 37 38 40 41 42 41 38 36 36 36 34 33 33 34 35 35 35 37 38 38 38 37
30 35 30 31 29 30 29 34 30 27 34 35 35 36 36 35 36 36 35 33 33 35 39 39 40 41 41 38 36 36 35 35 34 35 35 36 36 36 37 38 37 37 37 36
26 29 30 31 28 27 30 32 36 34 36 37 39 41 42 44 46 41 41 40 37 36 38 39 39 38 36 34 35 33 33 35 35 35 36 36 36 34 35 37 37 37 35 35
28 29 29 30 29 34 38 39 41 41 39 39 39 40 39 40 39 38 39 39 39 38 36 37 36 34 34 34 33 33 35 35 35 37 37 36 35 35 36 38 36 38 36 36
26 28 32 33 37 38 37 39 40 39 38 36 36 38 37 36 35 35 36 35 35 34 33 32 32 32 33 34 33 32 34 36 36 36 38 37 37 37 37 37 38 40 41 39
28 29 30 32 34 38 37 41 40 37 36 32 33 35 35 33 32 32 31 31 31 31 31 31 32 33 33 32 32 34 35 36 35 36 37 37 37 38 36 36 39 39 38 37
29 28 29 26 33 39 40 39 39 38 34 32 32 32 32 31 29 29 29 29 30 31 32 33 34 33 31 33 33 35 35 35 35 35 36 36 37 36 38 36 35 29 32 30
Lifted_Index
6 5 5 5 5 4 4 3 3 2 2 2 2 3 3 3 3 3 3 3 3 2 2 1 -0 -2 -3 -4 -5 -5 -5 -5 -5 -5 -5 -4 -3 -2 -1 -1 -0 0 2 3
5 5 5 5 4 4 4 4 3 3 3 3 3 3 3 3 3 3 3 3 3 2 2 1 -0 -2 -3 -4 -5 -5 -5 -5 -5 -5 -4 -4 -2 -2 -1 -0 0 2 4 5
5 5 5 5 5 4 4 4 4 3 3 3 3 3 3 3 3 4 4 3 3 2 2 2 0 -2 -3 -4 -5 -5 -5 -5 -4 -4 -4 -3 -2 -1 -1 0 2 4 6 7
5 6 5 5 5 5 4 4 4 3 3 3 3 3 3 3 3 4 4 3 3 2 2 2 1 -1 -3 -4 -5 -5 -5 -5 -4 -4 -3 -2 -2 -1 0 2 3 6 7 7
5 5 5 5 5 5 4 4 3 3 3 3 3 3 3 3 4 4 4 3 3 2 2 2 1 -0 -2 -4 -4 -5 -5 -5 -5 -4 -3 -2 -2 -0 2 3 5 6 8 8
4 4 4 5 5 4 4 3 3 3 2 2 3 3 3 3 3 4 4 4 3 2 2 1 1 -0 -2 -3 -4 -5 -5 -5 -5 -4 -3 -2 -1 0 1 3 5 7 8 9
3 3 3 4 4 4 4 3 2 2 1 2 3 2 3 3 3 3 3 4 3 2 1 1 0 -0 -2 -3 -4 -4 -4 -4 -4 -3 -3 -3 -2 -0 1 3 6 8 9 9
3 2 3 3 4 4 3 3 2 1 1 2 2 3 3 3 3 3 3 3 3 2 2 1 0 -0 -1 -2 -3 -2 -2 -3 -3 -3 -3 -3 -2 1 3 6 8 9 10 10
3 2 2 3 3 3 3 2 2 1 1 1 2 3 3 3 3 3 3 3 3 3 2 1 0 -0 -1 -1 -1 -1 -1 -2 -2 -3 -3 -2 1 4 6 8 9 10 11 11
3 2 2 2 2 2 3 3 2 2 1 1 2 3 3 3 2 2 2 3 3 3 2 1 0 -0 -1 -0 0 1 0 -1 -3 -3 -2 0 5 7 9 9 10 11 12 12
2 2 2 1 1 1 2 2 2 1 1 1 1 2 3 3 2 1 1 2 2 2 2 1 0 -0 -0 1 2 2 1 -1 -2 -2 0 4 8 10 10 11 12 12 13 13
1 1 1 1 1 1 1 1 2 1 1 1 1 2 3 3 2 1 1 1 2 2 1 0 -0 -0 -0 1 3 3 1 -0 -1 1 3 7 10 11 12 12 13 13 13 13
0 -0 0 1 1 1 1 1 1 1 1 1 2 2 3 3 3 2 2 1 1 1 1 0 0 -0 0 2 3 4 2 1 1 3 7 10 11 12 13 13 13 14 14 14
-0 -1 -0 1 1 1 0 1 1 0 0 1 2 3 4 3 2 2 1 1 1 1 1 1 0 0 1 2 4 4 4 3 4 6 9 11 12 13 13 14 14 14 15 15
-0 -0 -0 0 1 1 0 0 0 -0 -0 1 3 4 4 3 2 2 1 1 1 1 1 1 1 1 2 3 4 5 6 7 7 9 10 12 13 13 14 15 14 14 15 15
0 -0 -0 0 1 1 0 -0 -0 -0 0 1 3 4 4 3 2 2 1 1 1 2 2 2 2 2 3 3 4 6 7 9 10 11 11 12 13 14 15 15 13 13 14 15
0 0 0 0 1 1 1 0 0 0 1 1 3 4 3 3 2 2 1 1 2 2 2 2 2 3 4 4 5 7 8 10 11 12 12 12 13 15 15 14 12 12 14 15
1 1 1 1 1 1 1 1 1 1 2 2 3 4 3 3 3 2 2 1 1 2 2 2 2 3 4 5 6 8 9 11 12 12 12 13 14 15 14 13 12 13 15 15
2 2 2 2 1 1 1 2 2 2 2 3 3 4 4 3 3 3 2 2 2 2 2 2 3 3 5 6 7 9 10 12 12 13 13 14 14 14 13 12 13 14 15 16
2 2 2 2 2 1 2 2 1 1 1 2 3 3 3 3 3 3 2 2 2 2 2 2 3 4 5 7 9 10 11 12 13 13 14 14 14 13 12 13 14 15 16 16
1 2 2 2 2 2 2 1 0 0 1 1 2 2 2 2 2 2 2 2 2 2 2 3 4 5 6 8 10 11 11 12 14 14 14 14 13 13 13 13 15 16 16 16
1 1 2 2 2 2 1 1 -0 -0 0 0 1 1 1 1 1 1 1 1 2 2 2 3 4 6 7 9 10 11 11 13 14 14 14 13 13 12 13 14 16 16 16 16
1 1 2 2 2 1 -0 -1 -0 -0 -0 -0 0 0 1 1 1 1 1 2 2 3 3 4 5 7 8 10 11 11 12 13 14 14 13 12 12 13 14 15 16 17 16 16
1 1 2 2 2 1 -0 -1 -1 -0 -0 0 0 0 1 1 1 2 2 2 2 3 4 5 6 7 9 11 13 13 14 14 14 13 13 12 12 13 15 17 17 17 17 16
1 2 2 2 2 1 0 -0 -0 0 1 1 1 1 1 2 2 3 3 3 3 3 5 6 7 8 10 12 14 15 15 14 13 13 13 13 13 15 17 18 18 17 17 17
2 2 3 3 2 1 0 -0 0 1 1 1 1 1 2 3 3 3 3 3 3 4 5 6 7 9 11 13 15 15 14 13 13 13 12 13 14 16 18 18 18 18 18 18